Location: Fours
(44.3167°N, 6.7000°E)
Time: 00:20:45
(UTC+00:00)

MOS 1-B Rocket - Pass Details

Date: 16 October 2021
Orbit: 890 x 1606 km, 99.0° (Epoch: 26 November)

Event Time Altitude Azimuth Distance (km) Brightness Sun altitude
Rises 17:46:47 0° 15° (NNE) 4,225 7.1 -11.4°
Reaches altitude 10° 17:49:39 10° 17° (NNE) 3,150 6.5 -11.9°
Maximum altitude 17:56:44 74° 103° (ESE) 1,105 4.1 -13.2°
Drops below altitude 10° 18:02:46 10° 188° (S) 2,703 6.4 -14.3°
Sets 18:05:04 0° 190° (S) 3,590 7.1 -14.7°
